User: anonymous   Login
Location: Unspecified
(0.0000°N, 0.0000°E)
Time: 16:20:35
(UTC+00:00)
Language:

SR - Orbit

View from above orbital plane
View from above orbital plane
View from above satellite
View from above satellite

Ground track
Ground track

The orbit data is extracted from the following two-line orbital elements,

1    46U 60007B   19016.46676712 -.00000062  00000-0  10806-4 0  9997
2    46  66.6910   6.0146 0207620 159.1801 201.7923 14.49198214 64040
Epoch (UTC): 16 January 2019 11:12:08
Eccentricity: 0.0207620
inclination: 66.6910°
perigee height: 581 km
apogee height: 876 km
right ascension of ascending node: 6.0146°
argument of perigee: 159.1801°
revolutions per day: 14.49198214
mean anomaly at epoch: 201.7923°
orbit number at epoch: 6404

The dashed part of the orbit path shows where the satellite is in the earth's shadow,  

DLR